Погода в Бабынино

Россия / Калужская область     54°23′23″N   35°46′01″E
темп.,
°C
ветер,
м/с
пор.,
м/с
влажн.,
%
обл.,
%
осадки,
мм/ч
давл.,
гПа
погр.,
м
11 апреля, вс
вс1100:00+3ююз39700 0.0 1026138
03:00+2юз39760 0.0 1027138
06:00+2юз35793 0.0 102883
09:00+7ююз34610 0.0 1029265
12:00+12ююз34470 0.0 1029750
15:00+14ююз22410 0.0 10291241
18:00+13юв22500 0.0 103024
21:00+9юв22620 0.0 103117
12 апреля, пн
пн1200:00+7вюв33690 0.0 103223
03:00+5в33741 0.0 103328
06:00+4в387998 0.0 1032138
09:00+8в61258100 0.0 1031554
12:00+12в71045100 0.0 1029826
15:00+13вюв6764100 0.0 1028947
18:00+12вюв4875100 0.0 1027411
21:00+8в3891100 0.0 1027158
13 апреля, вт
вт1300:00+8в3593100 0.0 102586
03:00+7вюв3392100 0.0 102435
06:00+8юв3388100 0.0 102450
09:00+11ююв377699 0.0 1024202
12:00+16ююв5759100 0.0 1023528
15:00+19ююв5747100 0.0 10221419
18:00+16ююв36589 0.0 1022119
21:00+12юв496790 0.0 1022129
14 апреля, ср
ср1400:00+10юв4117162 0.0 1022177
03:00+9юв4117651 0.0 1021184
06:00+8ююв358084 0.0 102179
09:00+13ююв486447 0.0 1021302
12:00+17ююв5848100 0.0 1020807
15:00+19ююв674447 0.0 10181714
18:00+17юв4746100 0.0 1017233
21:00+12вюв355977 0.0 101875
15 апреля, чт
чт1500:00+11юв2258100 0.0 101724
03:00+10вюв2260100 0.0 101711
06:00+9вюв1166100 0.0 101710
09:00+13св235899 0.0 1016169
12:00+17юв2345100 0.0 1016819
15:00+17юв334699 0.0 10151721
18:00+16в235791 0.0 101563
21:00+11ссв4882100 0.8 1016222